Weather History for Iron Mountain, MI

Change the Weather History Date:

Friday, September 7, 2012

  Actual Average Record
Temperature  
Mean Temperature 58 °F -  
Max Temperature 66 °F 72 °F 96 °F (1976)
Min Temperature 50 °F 48 °F 30 °F (1986)
Degree Days  
Heating Degree Days 6    
Growing Degree Days 8 (Base 50)    
Moisture  
Dew Point 54 °F    
Average Humidity 87    
Maximum Humidity 96    
Minimum Humidity 60    
Precipitation  
Precipitation 0.16 in - - ()
Sea Level Pressure  
Sea Level Pressure 29.88 in    
Wind  
Wind Speed 4 mph (WNW)    
Max Wind Speed 9 mph    
Max Gust Speed -    
Visibility 10 miles    
Events Rain    
Averages and records for this station are not official NWS values.
T = Trace of Precipitation, MM = Missing Value Source: NWS Daily Summary

Daily Weather History Graph

Daily Weather History Graph

Search for Another Location

Airport:

Trip Planner

Search our weather history database for the weather conditions in past years. The results will help you decide how hot, cold, wet, or windy it might be!

Date:

Astronomy

Sep. 07, 2012 Rise Set
Actual Time 6:21 AM CDT 7:18 PM CDT
Civil Twilight 5:51 AM CDT 7:48 PM CDT
Nautical Twilight 5:14 AM CDT 8:24 PM CDT
Astronomical Twilight 4:36 AM CDT 9:02 PM CDT
Moon 10:50 PM CDT (9/7) 1:36 PM CDT (9/7)
Length of Visible Light 13h 57m
Length of Day
12h 56m
Waning Gibbous, 58% of the Moon is Illuminated
Sep 7
Waning Gibbous
Sep 8
Last Quarter
Sep 15
New
Sep 22
First Quarter
Sep 29
Full

Hourly Weather History & Observations

Time (CDT) Temp. Dew Point Humidity Pressure Visibility Wind Dir Wind Speed Gust Speed Precip Events Conditions
12:54 AM 60.1 °F 55.0 °F 83% 29.93 in 9.0 mi WNW 6.9 mph - 0.00 in Rain Light Rain
1:54 AM 57.9 °F 55.9 °F 93% 29.92 in 7.0 mi NW 6.9 mph - 0.03 in Rain Light Rain
2:54 AM 57.0 °F 55.9 °F 96% 29.90 in 10.0 mi Calm Calm - 0.00 in Rain Light Rain
3:54 AM 57.0 °F 55.0 °F 93% 29.88 in 10.0 mi Calm Calm - 0.00 in   Overcast
4:54 AM 57.0 °F 55.0 °F 93% 29.87 in 10.0 mi Calm Calm - 0.00 in   Overcast
5:54 AM 57.0 °F 55.0 °F 93% 29.87 in 10.0 mi WNW 4.6 mph - 0.00 in   Overcast
6:54 AM 57.0 °F 55.0 °F 93% 29.88 in 10.0 mi NNW 6.9 mph - 0.00 in Rain Light Rain
7:54 AM 57.0 °F 54.0 °F 89% 29.90 in 10.0 mi NW 9.2 mph - 0.00 in Rain Light Rain
8:54 AM 57.0 °F 55.0 °F 93% 29.91 in 6.0 mi Calm Calm - 0.02 in Rain Light Rain
9:25 AM 57.2 °F 55.4 °F 94% 29.91 in 10.0 mi South 5.8 mph - 0.00 in   Overcast
9:47 AM 57.2 °F 55.4 °F 94% 29.90 in 10.0 mi Calm Calm - 0.00 in Rain Light Rain
9:54 AM 57.0 °F 55.0 °F 93% 29.89 in 10.0 mi SE 4.6 mph - 0.00 in Rain Light Rain
10:26 AM 57.2 °F 55.4 °F 94% 29.89 in 10.0 mi Calm Calm - 0.00 in   Overcast
10:46 AM 57.2 °F 55.4 °F 94% 29.90 in 10.0 mi West 6.9 mph - 0.00 in   Overcast
10:54 AM 57.9 °F 55.9 °F 93% 29.91 in 10.0 mi Calm Calm - 0.00 in   Overcast
11:54 AM 59.0 °F 55.9 °F 90% 29.88 in 10.0 mi Calm Calm - N/A   Overcast
11:56 AM 59.0 °F 55.4 °F 88% 29.87 in 10.0 mi Calm Calm - N/A   Overcast
12:45 PM 60.8 °F 55.4 °F 82% 29.86 in 10.0 mi Variable 3.5 mph - N/A   Mostly Cloudy
12:54 PM 61.0 °F 54.0 °F 78% 29.86 in 10.0 mi Calm Calm - N/A   Mostly Cloudy
1:03 PM 62.6 °F 55.4 °F 77% 29.85 in 10.0 mi Variable 3.5 mph - N/A   Mostly Cloudy
1:21 PM 64.4 °F 53.6 °F 68% 29.84 in 10.0 mi Calm Calm - N/A   Mostly Cloudy
1:43 PM 64.4 °F 51.8 °F 64% 29.84 in 10.0 mi Calm Calm - N/A   Mostly Cloudy
1:54 PM 64.9 °F 53.1 °F 65% 29.84 in 10.0 mi SW 3.5 mph - N/A   Mostly Cloudy
2:02 PM 66.2 °F 51.8 °F 60% 29.83 in 10.0 mi Variable 4.6 mph - N/A   Mostly Cloudy
2:54 PM 55.9 °F 52.0 °F 87% 29.86 in 3.0 mi WNW 5.8 mph - 0.08 in Rain Rain
3:54 PM 57.9 °F 55.0 °F 90% 29.85 in 10.0 mi NW 5.8 mph - 0.03 in   Overcast
4:54 PM 60.1 °F 55.9 °F 86% 29.85 in 10.0 mi NNW 6.9 mph - 0.00 in   Overcast
5:54 PM 59.0 °F 52.0 °F 78% 29.87 in 10.0 mi NW 9.2 mph - 0.00 in   Overcast
6:54 PM 57.0 °F 53.1 °F 87% 29.86 in 10.0 mi NW 4.6 mph - 0.00 in   Mostly Cloudy
7:54 PM 54.0 °F 52.0 °F 93% 29.87 in 10.0 mi NW 3.5 mph - N/A   Partly Cloudy
8:54 PM 53.1 °F 52.0 °F 96% 29.88 in 10.0 mi NW 4.6 mph - N/A   Partly Cloudy
9:54 PM 52.0 °F 50.0 °F 93% 29.87 in 10.0 mi NW 4.6 mph - N/A   Scattered Clouds
10:54 PM 51.1 °F 48.9 °F 92% 29.87 in 10.0 mi WNW 3.5 mph - N/A   Clear
11:54 PM 50.0 °F 48.0 °F 93% 29.86 in 10.0 mi Calm Calm - N/A   Clear